DECAYED

NOAA 16 DEB, 42360 (Decayed)

Orbit data source: Space-Track

NOAA 16 DEB, 42360 was space debris in SSO originally from a launch on Thu, 21 Sep 2000 UTC launched from the Air Force Western Test Range (AFWTR). Debris objects in space refer to the collection of defunct objects orbiting the Earth. Examples of debris include non-operational satellites, rocket bodies, and fragments generated from explosions, collisions, or faulty payload assembly.

Not visible in the next 10 days
Identifier
42360, 2000-055RC
Orbit
Decayed
Country
Flag of USUS
Related business
Manufacturer
Unknown
Mission
Decayed spacecraft
Bus & Motor
Unknown
Mass
Unknown
Launch date (UTC)
2000-09-21 (25 years ago)
Launch vehicle
Unknown
Launch site
Air Force Western Test Range (AFWTR)
Object type
Payload
Rocket body
Debris
Shape & HBR
Unknown shape, 0.1 m
Radar Cross Section
Small (<0.1 m²)

Expand to show TLE details & history
Last TLE update: 10 months ago

TLE from 10 months ago
0 NOAA 16 DEB
1 42360U 00055RC  25042.96296219  .02117046  00000-0  23360-1 0  9998
2 42360  98.8119 226.2442 0021795 345.0425  15.0179 15.59301419471993
Epoch: 2025-02-11T23:06Z
TLE epoch observation values (Epoch: 2025-02-11T23:06:39.933Z)
Latitude
-0.00007°
Longitude
97.31757°
Altitude
378.529 km
Speed
7.691 km/s
True Right ascension
15h 04m 58s
True Declination
0° 00' 00"
Sunlit
Object was in daylight at epoch
Visualization orbit readout
Latitude
Unknown
Longitude
Unknown
Altitude
Unknown
Speed
Unknown
Apparent Right ascension
Unknown
Apparent Declination
Unknown
Sunlit
N/A
Visualization observer readout
Local Sidereal Time
05:21:17
Azimuth
Unknown
Elevation
Unknown
Doppler factor
Unknown
Orbital elements
Apogee altitude
401.402 km
Perigee altitude
371.914 km
Semi-major axis
6,764.795 km
Eccentricity
0.00218
Inclination
98.8119°
RAAN
226.2442°
Arg. of periapsis
345.0425°
True anomaly
15.08279°
Mean anomaly
15.0179°
Eccentric anomaly
15.05033°
Mean motion
3.90087 °/min
Orbital period
92.29 mins
BSTAR
0.02336
Loading maneuver chart data...
Computing Atmospheric mass density...
Loading historical data...
Loading historical data...
Loading historical data...
Loading historical data...
Loading historical data...
Loading historical data...
Loading historical data...

Documentation

Showing up to 5 results
|